NOAA 16 DEB

Satellite information

Favourite Embed

Satellite Type and Status

DEBRISIN ORBIT

Key statistics

Satellite NOAA 16 DEB at a glance.

Uptime

8995

Days in orbit

Revolutions

≈ 14.4

Per day

Orbit

SSO

Sun Synchronous Orbit

Inclination

98.8

Latest

Satellite identification and parameters

Extended collection of information and parameters for NOAA 16 DEB.

Object identification

Identified? True

Debris? True

Object name: NOAA 16 DEB

International designator: 2000-055SF

Object number (NORAD): 42387

Object ID (CCSDS): 42387

Country: UNITED STATES OF AMERICA (US)

Current information (Y/N): Y

RCS size: SMALL

Orbital parameters

Period: 100.193 minutes

Inclination: 98.8194 deg

SMA: 7145.799 km

Apoapsis: 775.754 km

Periapsis: 759.574 km

RAAN: 240.047 deg

Eccentricy: 0.0011321

Argument of periapsis: 9.5049 deg

Mean anomaly: 350.6349 deg

Mean motion: 14.37230999 rev/day

Mean motion (dot): 0.0000757 rev/day2

B* drag term: 0.002553 1/REarth

Two-line elements (TLE)

Creation date: May 8, 2025, 3:01 a.m.

Reference frame: TEME

Reference center: EARTH

Epoch: May 7, 2025, 6:37 a.m. UTC

TLE line 0: 0 NOAA 16 DEB

TLE line 1: 1 42387U 00055SF 25127.27606393 .00007570 00000-0 25530-2 0 9993

TLE line 2: 2 42387 98.8194 240.0470 0011321 9.5049 350.6349 14.37230999477215

Live tracking on map

Real-time ground track for satellite NOAA 16 DEB.

In-orbit conjunctions

A list of the most updated potential collisions computed for object NOAA 16 DEB.

Target Orbit TCA Probability of collision Miss distance Type
CZ-6A DEB LEO 2025-01-26 00:56:09 0.0001819667 370.0 (m) DEBRIS
THOR ABLESTAR DEB LEO 2024-11-14 08:24:38 0.0001524776 220.0 (m) DEBRIS
IRIDIUM 33 LEO 2024-11-12 03:30:50 0.0001048086 303.0 (m) PAYLOAD
SL-3 DEB LEO 2024-06-12 01:20:18 0.0001303436 202.0 (m) DEBRIS
METEOR 2-8 DEB LEO 2024-06-08 06:35:38 0.0001425333 132.0 (m) DEBRIS

Associated space launch

The NOAA K, L and M POES satellites begin the fifth generation of improved environmental monitoring in support of NOAA missions. The instrument payload has significant improvements and additions/deletions. The instrument changes have effected the spacecraft subsystems and data formats.

NOAA 16 DEB was lifted into orbit during the mission ‘Titan II SLV | NOAA 16’, on board a Titan II SLV space rocket.

The launch took place on Sept. 21, 2000, 10:22 a.m. from Space Launch Complex 4W.

For more information about the launch, click the button.

Launch to space Titan II SLV | NOAA 16
Titan II SLV | NOAA 16

Agency: N/A

Status: Launch Successful

Launch date: Sept. 21, 2000, 10:22 a.m. UTC

Rocket: Titan II SLV

Launch pad: Space Launch Complex 4W

Location: Vandenberg SFB, CA, USA

...

Latest news about this satellite

There are no fresh news available about this satellite. Check back as we update our databases every day.


Newsletter sign-up

Weekly statistics, charts and insights to help you stay on top of the space industry.